DECAYED

STARLINK-3149, 49423 (Decayed)

Orbit data source: Space-Track

STARLINK-3149, 49423 was a payload satellite owned by SpaceX/Seattle (US) in LEO that was launched on Sat, 13 Nov 2021 UTC via an FALCON 9 launch vehicle from the Air Force Eastern Test Range (AFETR). Payload-class satellites include a variety of spacecraft equipped with specific instruments for various scientific and technological missions. These include communications satellites like Starlink; space stations such as the ISS; scientific satellites like the Hubble; Earth observation satellites from companies like Planet Labs, Umbra, and HawkEye 360; GPS; miniature CubeSats for education and research; and military/defense satellites.

Not visible in the next 10 days
Identifier
49423, 2021-104R
Orbit
Decayed
Country
Flag of USUS
Related business
Manufacturer
SpaceX/Seattle
Mission
Decayed Commercial Communications
Bus & Motor
STARLINK, Unknown motor
Mass
290 kg wet, ~270 kg dry
Launch date (UTC)
2021-11-13 (5 years ago)
Launch vehicle
FALCON 9
Launch site
Air Force Eastern Test Range (AFETR)
Object type
Payload
Rocket body
Debris
Shape & HBR
Box + 1 Pan, 10.1 m
Radar Cross Section
13.562 m², Large (>1 m²)

Expand to show TLE details & history
Last TLE update: 2 months ago

TLE from 2 months ago
0 STARLINK-3149
1 49423U 21104R   26090.88982057  .11624119  12635-4  16335-3 0  9991
2 49423  53.2006 104.5877 0002942 322.9930  37.0920 16.48897220242328
Epoch: 2026-03-31T21:21Z
TLE epoch observation values (Epoch: 2026-03-31T21:21:20.497Z)
Latitude
0.00006°
Longitude
-45.00818°
Altitude
141.661 km
Speed
7.823 km/s
True Right ascension
06h 58m 21s
True Declination
0° 00' 00"
Sunlit
Object was in daylight at epoch
Visualization orbit readout
Latitude
Unknown
Longitude
Unknown
Altitude
Unknown
Speed
Unknown
Apparent Right ascension
Unknown
Apparent Declination
Unknown
Sunlit
N/A
Visualization observer readout
Local Sidereal Time
14:52:49
Azimuth
Unknown
Elevation
Unknown
Doppler factor
Unknown
Orbital elements
Apogee altitude
144.422 km
Perigee altitude
140.585 km
Semi-major axis
6,520.64 km
Eccentricity
0.00029
Inclination
53.2006°
RAAN
104.5877°
Arg. of periapsis
322.993°
True anomaly
37.11234°
Mean anomaly
37.092°
Eccentric anomaly
37.10217°
Mean motion
4.122 °/min
Orbital period
87.34 mins
BSTAR
0.00016335
Loading maneuver chart data...
Computing Atmospheric mass density...
Loading historical data...
Loading historical data...
Loading historical data...
Loading historical data...
Loading historical data...
Loading historical data...
Loading historical data...

Documentation

Showing up to 5 results
|